DateTimeUTC,F1_A11,F1_S11,BsB_S11,BsG_S11,BsR_S11,BbsB_S11,BbsG_S11,BbsR_S11,BaB_A11,BaG_A11,BaR_A11,Tu_S11,T_S11,Uu_S11,U_S11,P_S11,T1_A11
2021-08-02T16:00:00Z,00000200,20000000,,,,,,,-000.35,-000.28,-000.29,21.3,27.3,06.2,04.3,0673.0,31.3
2021-08-02T16:01:00Z,00000200,20000000,,,,,,,0000.17,0000.19,-000.18,21.3,27.3,06.2,04.3,0673.0,31.4
2021-08-02T16:02:00Z,00000200,20000000,,,,,,,-000.19,0000.00,0000.20,21.3,27.3,06.2,04.3,0673.0,31.4
2021-08-02T16:03:00Z,00000200,60000000,,,,,,,0000.88,0000.44,0000.43,21.3,27.3,06.2,04.3,0673.0,31.3
2021-08-02T16:04:00Z,00000200,40000000,0007.50,0004.63,0003.12,0000.77,0000.48,0000.64,0001.37,0001.18,0000.98,21.2,27.1,06.2,04.4,0673.9,31.1
2021-08-02T16:05:00Z,00000200,00000000,0007.12,0005.04,0002.86,0001.09,0000.39,0000.64,0001.53,0001.40,0000.41,21.0,26.9,06.2,04.3,0673.9,31.0
2021-08-02T16:06:00Z,00000200,00000000,0006.32,0004.58,0003.00,0000.80,0000.95,0000.45,0001.65,0001.67,0001.19,20.8,26.8,06.3,04.4,0673.9,30.9
2021-08-02T16:07:00Z,00000200,00000000,0006.68,0004.61,0002.59,0000.77,0000.52,0000.89,0001.31,0001.03,0001.26,20.6,26.7,06.4,04.5,0673.9,30.8
2021-08-02T16:08:00Z,00000200,00000000,0006.82,0004.76,0002.80,0000.76,0000.83,0000.46,0001.56,0001.41,0001.27,20.5,26.6,06.4,04.4,0673.9,30.9
2021-08-02T16:09:00Z,00000200,00000000,0006.61,0004.78,0002.86,0001.29,0000.61,0000.23,0001.19,0001.15,0000.51,20.4,26.6,06.6,04.5,0673.9,30.9
2021-08-02T16:10:00Z,00000200,00000000,0005.86,0004.82,0002.58,0000.89,0000.52,0000.44,0001.31,0001.00,0000.93,20.3,26.5,06.5,04.4,0673.9,30.9
2021-08-02T16:11:00Z,00000200,00000000,0006.38,0004.29,0002.73,0000.85,0000.60,0000.22,0001.45,0001.53,0000.73,20.2,26.4,06.6,04.5,0673.9,30.9
2021-08-02T16:12:00Z,00000200,00000000,0006.41,0004.34,0002.92,0000.79,0000.52,0000.67,0001.12,0001.04,0001.24,20.2,26.4,06.5,04.5,0673.9,30.9
2021-08-02T16:13:00Z,00000200,00000000,0006.93,0004.39,0002.63,0000.65,0000.90,0000.69,0001.52,0001.18,0001.02,20.3,26.4,06.5,04.5,0673.9,31.0
2021-08-02T16:14:00Z,00000200,00000000,0005.67,0004.34,0002.43,0001.40,0000.41,0000.32,0000.87,0001.00,0000.73,20.3,26.5,06.4,04.4,0673.9,31.0
2021-08-02T16:15:00Z,00000200,00000000,0006.82,0004.95,0002.83,0000.77,0000.76,0000.77,0001.28,0001.05,0000.86,20.4,26.5,06.5,04.5,0673.9,31.1
2021-08-02T16:16:00Z,00000200,00000000,0005.40,0004.30,0002.78,0001.35,0000.99,0000.33,0001.34,0001.45,0000.76,20.4,26.5,06.4,04.4,0673.9,31.1
2021-08-02T16:17:00Z,00000200,00000000,0006.62,0004.70,0002.39,0000.78,0000.78,0000.42,0001.36,0001.15,0001.18,20.5,26.5,06.4,04.4,0673.9,31.1
2021-08-02T16:18:00Z,00000200,00000000,0006.36,0004.08,0002.42,-000.23,0000.45,0000.31,0001.92,0001.99,0001.12,20.5,26.6,06.4,04.5,0673.9,31.1
2021-08-02T16:19:00Z,00000200,00000000,0006.06,0003.94,0002.65,0001.40,0000.86,0000.55,0000.83,0000.32,0000.67,20.6,26.6,06.5,04.5,0673.8,31.1
2021-08-02T16:20:00Z,00000200,00000000,0007.17,0004.30,0002.64,0000.93,0000.56,0000.44,0001.49,0001.40,0001.22,20.6,26.6,06.4,04.5,0673.8,31.1
2021-08-02T16:21:00Z,00000200,00000000,0006.35,0004.50,0002.67,0000.95,0000.70,0000.36,0001.33,0001.42,0000.81,20.6,26.6,06.4,04.5,0673.8,31.1
2021-08-02T16:22:00Z,00000200,00000000,0006.07,0004.43,0002.47,0000.41,0000.76,0000.43,0001.30,0001.06,0001.12,20.7,26.6,06.4,04.5,0673.8,31.2
2021-08-02T16:23:00Z,00000200,00000000,0006.69,0004.09,0002.61,0000.64,0000.56,0000.44,0001.48,0001.47,0000.75,20.7,26.6,06.5,04.5,0673.8,31.2
2021-08-02T16:24:00Z,00000200,00000000,0006.33,0004.71,0002.70,0000.83,0000.75,0000.46,0001.50,0001.18,0000.85,20.7,26.7,06.6,04.6,0673.8,31.2
2021-08-02T16:25:00Z,00000200,00000000,0006.18,0004.65,0002.67,0000.41,0000.47,0000.16,0001.18,0001.24,0000.88,20.7,26.7,06.5,04.6,0673.8,31.2
2021-08-02T16:26:00Z,00000200,00000000,0006.41,0003.98,0002.17,0001.00,0000.91,0000.38,0001.38,0001.03,0000.97,20.8,26.7,06.3,04.4,0673.8,31.2
2021-08-02T16:27:00Z,00000200,00000000,0006.04,0004.77,0002.79,0000.61,0000.50,0000.06,0000.91,0001.33,0000.53,20.8,26.7,06.5,04.5,0673.8,31.2
2021-08-02T16:28:00Z,00000200,00000000,0006.60,0004.49,0002.43,0001.23,0000.51,0000.22,0001.30,0000.94,0001.20,20.8,26.7,06.4,04.5,0673.8,31.2
2021-08-02T16:29:00Z,00000200,00000000,0005.81,0004.28,0002.79,0000.91,0000.68,0000.02,0001.55,0001.34,0001.05,20.9,26.7,06.5,04.5,0673.8,31.2
2021-08-02T16:30:00Z,00000200,00000000,0005.87,0004.61,0002.31,0000.56,0000.84,0000.26,0001.35,0001.01,0000.91,20.9,26.7,06.4,04.5,0673.8,31.2
2021-08-02T16:31:00Z,00000200,00000000,0005.83,0004.37,0002.58,0001.08,0000.29,0000.39,0001.24,0000.93,0000.78,20.9,26.8,06.5,04.5,0673.8,31.2
2021-08-02T16:32:00Z,00000200,00000000,0006.73,0004.28,0002.94,0000.48,0000.32,0000.75,0000.96,0001.40,0000.70,20.9,26.8,06.2,04.4,0673.8,31.2
2021-08-02T16:33:00Z,00000200,00000000,0007.05,0004.03,0002.39,0000.86,0000.84,0000.17,0001.33,0001.30,0001.43,21.0,26.8,06.3,04.5,0673.8,31.2
2021-08-02T16:34:00Z,00000200,00000000,0005.99,0004.16,0002.51,0000.51,0000.83,0000.09,0001.74,0001.30,0000.57,21.0,26.8,06.3,04.5,0673.9,31.2
2021-08-02T16:35:00Z,00000200,00000000,0006.23,0004.74,0002.51,0000.77,0000.44,0000.40,0000.89,0001.39,0000.61,21.0,26.8,06.4,04.5,0673.9,31.2
2021-08-02T16:36:00Z,00000200,00000000,0006.47,0004.55,0002.52,0000.51,0000.36,0000.53,0001.39,0000.93,0001.11,21.0,26.8,06.4,04.5,0673.9,31.2
2021-08-02T16:37:00Z,00000200,00000000,0005.94,0004.56,0002.71,0001.13,0000.62,0000.57,0001.32,0000.98,0000.99,21.0,26.8,06.4,04.5,0673.9,31.2
2021-08-02T16:38:00Z,00000200,00000000,0005.68,0004.20,0002.50,0000.85,0000.50,0000.28,0001.38,0001.56,0001.29,21.0,26.8,06.3,04.5,0673.9,31.2
2021-08-02T16:39:00Z,00000200,00000000,0006.73,0004.18,0002.30,0000.84,0000.87,0000.50,0001.20,0000.92,0000.53,21.1,26.9,06.5,04.6,0673.9,31.3
2021-08-02T16:40:00Z,00000200,00000000,0005.61,0003.94,0002.61,0001.13,0000.80,0000.56,0001.46,0001.58,0001.39,21.1,26.9,06.5,04.6,0673.9,31.3
2021-08-02T16:41:00Z,00000200,00000000,0006.20,0004.19,0002.40,0000.77,0000.64,0000.42,0001.22,0001.16,0000.75,21.1,26.9,06.5,04.6,0673.9,31.3
2021-08-02T16:42:00Z,00000200,00000000,0006.43,0004.30,0002.37,0000.39,0000.83,0000.62,0001.28,0001.05,0001.09,21.1,26.9,06.5,04.6,0673.9,31.3
2021-08-02T16:43:00Z,00000200,00000000,0006.82,0004.20,0002.45,0000.69,0000.72,0000.31,0001.26,0000.84,0000.75,21.2,26.9,06.5,04.6,0673.9,31.3
2021-08-02T16:44:00Z,00000200,00000000,0006.24,0004.43,0002.50,0000.58,0000.77,0000.30,0001.46,0001.41,0000.70,21.2,26.9,06.5,04.6,0673.9,31.3
2021-08-02T16:45:00Z,00000200,00000000,0005.85,0004.40,0002.59,0000.79,0001.04,0000.79,0001.35,0001.38,0000.99,21.2,26.9,06.4,04.5,0673.9,31.2
2021-08-02T16:46:00Z,00000200,00000000,0005.96,0004.31,0002.83,0000.99,0001.01,0000.30,0001.00,0001.17,0000.98,21.2,26.9,06.5,04.6,0673.9,31.2
2021-08-02T16:47:00Z,00000200,00000000,0006.56,0004.42,0002.57,0000.63,0000.83,0000.08,0001.15,0000.81,0000.69,21.2,26.9,06.6,04.7,0673.9,31.2
2021-08-02T16:48:00Z,00000200,00000000,0006.28,0004.24,0002.52,0000.65,0001.02,0000.17,0001.72,0000.97,0001.08,21.2,26.9,06.5,04.6,0673.9,31.2
2021-08-02T16:49:00Z,00000200,00000000,0006.29,0004.29,0002.49,0000.60,0000.71,0000.50,0001.13,0001.65,0000.70,21.2,27.0,06.5,04.6,0673.9,31.3
2021-08-02T16:50:00Z,00000200,00000000,0006.79,0004.15,0002.53,0001.55,0000.90,0000.23,0001.51,0001.03,0000.95,21.2,27.0,06.4,04.5,0673.9,31.3
2021-08-02T16:51:00Z,00000200,00000000,0005.87,0004.66,0002.40,0000.75,0000.75,0000.28,0001.25,0001.10,0001.01,21.2,27.0,06.4,04.5,0673.9,31.3
2021-08-02T16:52:00Z,00000200,00000000,0006.19,0004.64,0002.73,0000.89,0000.73,0000.52,0001.22,0001.22,0000.97,21.2,27.0,06.5,04.6,0673.9,31.3
2021-08-02T16:53:00Z,00000200,00000000,0005.68,0004.53,0002.77,0000.39,0000.64,0000.23,0001.21,0001.23,0000.60,21.2,27.0,06.6,04.6,0673.9,31.3
2021-08-02T16:54:00Z,00000200,00000000,0006.87,0004.05,0002.70,0000.83,0000.59,0000.44,0001.78,0001.27,0001.46,21.2,27.0,06.7,04.7,0673.9,31.3
2021-08-02T16:55:00Z,00000200,00000000,0006.50,0004.40,0002.59,0000.49,0000.78,0000.64,0000.90,0001.34,0000.69,21.2,27.0,06.7,04.7,0673.8,31.3
2021-08-02T16:56:00Z,00000200,00000000,0006.23,0004.03,0002.42,0001.07,0000.99,0000.65,0001.43,0000.99,0000.95,21.2,27.0,06.8,04.8,0673.8,31.3
2021-08-02T16:57:00Z,00000200,40000000,,,,,,,0000.39,0000.35,-000.05,21.2,27.1,06.8,04.8,0673.7,31.3
2021-08-02T16:58:00Z,00000200,60000000,,,,,,,-000.18,0000.00,0000.20,21.1,27.1,06.7,04.7,0672.9,31.3
2021-08-02T16:59:00Z,00000200,20000000,,,,,,,0000.03,0000.20,-000.01,21.1,27.2,06.6,04.6,0672.8,31.3
